Location: WHS+Essen
(51.3947°N, 6.9794°E)
Time: 23:35:09
(UTC+02:00)

ISS - Pass Details

Date: 25 May 2019
Orbit: 408 x 418 km, 51.6° (Epoch: 19 June)

Event Time Altitude Azimuth Distance (km) Brightness Sun altitude
Rises 23:20:33 0° 277° (W) 2,357 0.6 -12.3°
Reaches altitude 10° 23:22:39 10° 277° (W) 1,496 -0.4 -12.5°
Maximum altitude 23:26:00 90° 279° (W) 423 -3.8 -12.7°
Enters shadow 23:29:12 11° 99° (E) 1,425 -1.4 -13.0°
